| time (UTC) | temp F | wind direction | speed MPH | gust MPH | rain 1hr in | rain 24hr in | rain mn in | humidity % | barometer mb |
| 20260902114817 | 84 | 303 | 2.0 | 3.0 | 0.00 | 0.00 | 0.00 | 62 | 1013.6 |
| 20260902113831 | 84 | 303 | 1.0 | 3.0 | 0.00 | 0.00 | 0.00 | 62 | 1013.7 |
| 20260902112823 | 84 | 303 | 1.0 | 3.0 | 0.00 | 0.00 | 0.00 | 61 | 1013.7 |
| 20260902111817 | 84 | 303 | 0.0 | 3.0 | 0.00 | 0.00 | 0.00 | 61 | 1013.6 |
| 20260902110831 | 84 | 303 | 0.0 | 2.0 | 0.00 | 0.00 | 0.00 | 61 | 1013.6 |
| 20260902105827 | 84 | 303 | 1.0 | 2.0 | 0.00 | 0.00 | 0.00 | 61 | 1013.4 |
| 20260902104820 | 84 | 303 | 2.0 | 3.0 | 0.00 | 0.00 | 0.00 | 61 | 1013.5 |
| 20260902103814 | 84 | 303 | 1.0 | 2.0 | 0.00 | 0.00 | 0.00 | 62 | 1013.5 |
| 20260902102824 | 84 | 303 | 0.0 | 1.0 | 0.00 | 0.00 | 0.00 | 62 | 1013.6 |
| 20260902101818 | 84 | 303 | 0.0 | 0.0 | 0.00 | 0.00 | 0.00 | 61 | 1013.6 |
| 20260902100816 | 84 | 303 | 0.0 | 1.0 | 0.00 | 0.00 | 0.00 | 61 | 1013.6 |
| 20260902095828 | 84 | 303 | 0.0 | 0.0 | 0.00 | 0.00 | 0.00 | 58 | 1013.5 |
| 20260902094822 | 85 | 303 | 0.0 | 1.0 | 0.00 | 0.00 | 0.00 | 57 | 1013.4 |
| 20260902093814 | 85 | 303 | 0.0 | 0.0 | 0.00 | 0.00 | 0.00 | 57 | 1013.4 |
| 20260902092827 | 85 | 303 | 0.0 | 0.0 | 0.00 | 0.00 | 0.00 | 57 | 1013.4 |
| 20260902091824 | 85 | 303 | 0.0 | 0.0 | 0.00 | 0.00 | 0.00 | 56 | 1013.4 |
| 20260902090819 | 85 | 303 | 0.0 | 0.0 | 0.00 | 0.00 | 0.00 | 56 | 1013.4 |
| 20260902085836 | 86 | 303 | 0.0 | 0.0 | 0.00 | 0.00 | 0.00 | 56 | 1013.4 |
| 20260902084828 | 86 | 303 | 0.0 | 1.0 | 0.00 | 0.00 | 0.00 | 55 | 1013.4 |
| 20260902083841 | 87 | 303 | 0.0 | 1.0 | 0.00 | 0.00 | 0.00 | 56 | 1013.5 |
| 20260902082817 | 87 | 303 | 0.0 | 1.0 | 0.00 | 0.00 | 0.00 | 55 | 1013.6 |
| 20260902081831 | 87 | 303 | 0.0 | 0.0 | 0.00 | 0.00 | 0.00 | 54 | 1013.6 |
| 20260902080825 | 87 | 303 | 0.0 | 1.0 | 0.00 | 0.00 | 0.00 | 54 | 1013.5 |
| 20260902075820 | 88 | 303 | 0.0 | 0.0 | 0.00 | 0.00 | 0.00 | 53 | 1013.5 |
| 20260902074832 | 88 | 303 | 0.0 | 0.0 | 0.00 | 0.00 | 0.00 | 53 | 1013.5 |
| 20260902073829 | 88 | 303 | 0.0 | 0.0 | 0.00 | 0.00 | 0.00 | 53 | 1013.4 |
| 20260902072822 | 88 | 303 | 0.0 | 1.0 | 0.00 | 0.00 | 0.00 | 52 | 1013.2 |
| 20260902071814 | 88 | 303 | 0.0 | 1.0 | 0.00 | 0.00 | 0.00 | 52 | 1013.2 |
| 20260902070846 | 88 | 303 | 0.0 | 0.0 | 0.00 | 0.00 | 0.00 | 53 | 1013.1 |
| 20260902065818 | 88 | 303 | 0.0 | 0.0 | 0.00 | 0.00 | 0.00 | 52 | 1013.0 |
| 20260902064816 | 88 | 303 | 0.0 | 0.0 | 0.00 | 0.00 | 0.00 | 51 | 1013.1 |
| 20260902063852 | 89 | 303 | 0.0 | 0.0 | 0.00 | 0.00 | 0.00 | 51 | 1013.0 |
| 20260902062821 | 89 | 303 | 0.0 | 0.0 | 0.00 | 0.00 | 0.00 | 50 | 1012.9 |
| 20260902061853 | 89 | 303 | 0.0 | 0.0 | 0.00 | 0.00 | 0.00 | 50 | 1013.1 |
| 20260902060825 | 89 | 303 | 0.0 | 0.0 | 0.00 | 0.00 | 0.00 | 49 | 1013.1 |
| 20260902055819 | 89 | 303 | 0.0 | 0.0 | 0.00 | 0.00 | 0.00 | 50 | 1013.1 |
| 20260902054831 | 89 | 303 | 0.0 | 1.0 | 0.00 | 0.00 | 0.00 | 50 | 1013.2 |
| 20260902053829 | 89 | 303 | 0.0 | 1.0 | 0.00 | 0.00 | 0.00 | 49 | 1013.2 |
| 20260902052823 | 89 | 303 | 0.0 | 1.0 | 0.00 | 0.00 | 0.00 | 49 | 1013.2 |
| 20260902051814 | 88 | 303 | 1.0 | 1.0 | 0.00 | 0.00 | 0.00 | 49 | 1013.2 |
| 20260902050827 | 89 | 303 | 0.0 | 0.0 | 0.00 | 0.00 | 0.00 | 48 | 1013.1 |
| 20260902045820 | 89 | 303 | 0.0 | 0.0 | 0.00 | 0.00 | 0.00 | 47 | 1013.0 |
| 20260902044836 | 89 | 303 | 0.0 | 0.0 | 0.00 | 0.00 | 0.00 | 46 | 1013.0 |
| 20260902043828 | 90 | 303 | 0.0 | 0.0 | 0.00 | 0.00 | 0.00 | 46 | 1012.9 |
| 20260902042821 | 90 | 303 | 0.0 | 0.0 | 0.00 | 0.00 | 0.00 | 45 | 1012.8 |
| 20260902041815 | 90 | 303 | 0.0 | 0.0 | 0.00 | 0.00 | 0.00 | 43 | 1012.8 |
| 20260902040830 | 90 | 303 | 0.0 | 0.0 | 0.00 | 0.00 | 0.00 | 43 | 1012.7 |
| 20260902035826 | 91 | 303 | 0.0 | 0.0 | 0.00 | 0.00 | 0.00 | 43 | 1012.6 |
| 20260902034820 | 91 | 303 | 0.0 | 0.0 | 0.00 | 0.00 | 0.00 | 43 | 1012.5 |
| 20260902033832 | 91 | 303 | 0.0 | 0.0 | 0.00 | 0.00 | 0.00 | 42 | 1012.2 |
| 20260902032824 | 91 | 303 | 0.0 | 0.0 | 0.00 | 0.00 | 0.00 | 41 | 1012.1 |
| 20260902031818 | 91 | 303 | 0.0 | 1.0 | 0.00 | 0.00 | 0.00 | 42 | 1011.9 |
| 20260902030835 | 92 | 303 | 0.0 | 0.0 | 0.00 | 0.00 | 0.00 | 41 | 1011.7 |
| 20260902025829 | 92 | 303 | 0.0 | 0.0 | 0.00 | 0.00 | 0.00 | 41 | 1011.5 |
| 20260902024823 | 92 | 303 | 0.0 | 0.0 | 0.00 | 0.00 | 0.00 | 39 | 1011.4 |
| 20260902023815 | 93 | 303 | 0.0 | 0.0 | 0.00 | 0.00 | 0.00 | 40 | 1011.4 |
| 20260902022827 | 93 | 303 | 0.0 | 0.0 | 0.00 | 0.00 | 0.00 | 39 | 1011.3 |
| 20260902021822 | 94 | 303 | 0.0 | 0.0 | 0.00 | 0.00 | 0.00 | 38 | 1011.2 |
| 20260902020815 | 95 | 303 | 0.0 | 0.0 | 0.00 | 0.00 | 0.00 | 38 | 1011.1 |
| 20260902015847 | 95 | 303 | 0.0 | 0.0 | 0.00 | 0.00 | 0.00 | 36 | 1011.1 |
| 20260902014819 | 96 | 303 | 0.0 | 1.0 | 0.00 | 0.00 | 0.00 | 35 | 1010.9 |
| 20260902013830 | 97 | 303 | 0.0 | 1.0 | 0.00 | 0.00 | 0.00 | 34 | 1010.9 |
| 20260902012823 | 98 | 303 | 0.0 | 2.0 | 0.00 | 0.00 | 0.00 | 34 | 1011.0 |
| 20260902011819 | 98 | 303 | 0.0 | 1.0 | 0.00 | 0.00 | 0.00 | 33 | 1011.1 |
| 20260902010833 | 99 | 303 | 0.0 | 2.0 | 0.00 | 0.00 | 0.00 | 34 | 1011.1 |
| 20260902005825 | 100 | 303 | 1.0 | 2.0 | 0.00 | 0.00 | 0.00 | 33 | 1011.3 |
| 20260902004817 | 101 | 303 | 0.0 | 1.0 | 0.00 | 0.00 | 0.00 | 33 | 1011.3 |
| 20260902003830 | 101 | 303 | 0.0 | 3.0 | 0.00 | 0.00 | 0.00 | 33 | 1011.4 |
| 20260902002829 | 101 | 303 | 1.0 | 3.0 | 0.00 | 0.00 | 0.00 | 33 | 1011.5 |
| 20260902001823 | 101 | 303 | 1.0 | 4.0 | 0.00 | 0.00 | 0.00 | 33 | 1011.6 |
| 20260902000816 | 101 | 303 | 1.0 | 3.0 | 0.00 | 0.00 | 0.00 | 34 | 1011.6 |
| 20260901235831 | 101 | 303 | 1.0 | 3.0 | 0.00 | 0.00 | 0.00 | 34 | 1011.7 |
| 20260901234824 | 101 | 303 | 1.0 | 4.0 | 0.00 | 0.00 | 0.00 | 33 | 1011.7 |
| 20260901233843 | 101 | 303 | 0.0 | 6.0 | 0.00 | 0.00 | 0.00 | 35 | 1011.7 |
| 20260901232815 | 101 | 303 | 1.0 | 5.0 | 0.00 | 0.00 | 0.00 | 34 | 1011.8 |
| 20260901231828 | 101 | 303 | 3.0 | 6.0 | 0.00 | 0.00 | 0.00 | 33 | 1011.9 |
| 20260901230820 | 101 | 303 | 3.0 | 6.0 | 0.00 | 0.00 | 0.00 | 33 | 1012.0 |
| 20260901225853 | 101 | 303 | 2.0 | 5.0 | 0.00 | 0.00 | 0.00 | 36 | 1012.1 |
| 20260901224828 | 101 | 303 | 1.0 | 4.0 | 0.00 | 0.00 | 0.00 | 35 | 1012.1 |
| 20260901223821 | 102 | 303 | 1.0 | 4.0 | 0.00 | 0.00 | 0.00 | 36 | 1012.2 |
| 20260901222814 | 101 | 303 | 2.0 | 4.0 | 0.00 | 0.00 | 0.00 | 35 | 1012.3 |
| 20260901221826 | 102 | 303 | 1.0 | 3.0 | 0.00 | 0.00 | 0.00 | 36 | 1012.5 |
| 20260901220840 | 99 | 303 | 0.0 | 3.0 | 0.00 | 0.00 | 0.00 | 38 | 1012.6 |
| 20260901215816 | 101 | 303 | 2.0 | 4.0 | 0.00 | 0.00 | 0.00 | 37 | 1012.6 |
| 20260901214829 | 101 | 303 | 2.0 | 4.0 | 0.00 | 0.00 | 0.00 | 36 | 1012.7 |
| 20260901213844 | 101 | 303 | 2.0 | 5.0 | 0.00 | 0.00 | 0.00 | 35 | 1012.8 |
| 20260901212833 | 101 | 303 | 1.0 | 5.0 | 0.00 | 0.00 | 0.00 | 37 | 1013.1 |
| 20260901211827 | 100 | 303 | 2.0 | 5.0 | 0.00 | 0.00 | 0.00 | 39 | 1013.3 |
| 20260901210816 | 100 | 303 | 1.0 | 4.0 | 0.00 | 0.00 | 0.00 | 38 | 1013.5 |
| 20260901205851 | 100 | 303 | 1.0 | 3.0 | 0.00 | 0.00 | 0.00 | 39 | 1013.7 |
| 20260901204846 | 100 | 303 | 1.0 | 4.0 | 0.00 | 0.00 | 0.00 | 39 | 1013.8 |
| 20260901203817 | 100 | 303 | 1.0 | 3.0 | 0.00 | 0.00 | 0.00 | 38 | 1014.0 |
| 20260901202830 | 100 | 303 | 1.0 | 3.0 | 0.00 | 0.00 | 0.00 | 40 | 1014.1 |
| 20260901201823 | 97 | 303 | 1.0 | 4.0 | 0.00 | 0.00 | 0.00 | 42 | 1014.3 |
| 20260901200855 | 100 | 303 | 1.0 | 3.0 | 0.00 | 0.00 | 0.00 | 41 | 1014.4 |
| 20260901195832 | 96 | 303 | 1.0 | 4.0 | 0.00 | 0.00 | 0.00 | 43 | 1014.5 |
| 20260901194824 | 97 | 303 | 2.0 | 5.0 | 0.00 | 0.00 | 0.00 | 42 | 1014.7 |
| 20260901193817 | 96 | 303 | 0.0 | 5.0 | 0.00 | 0.00 | 0.00 | 44 | 1014.8 |
| 20260901192830 | 97 | 303 | 2.0 | 4.0 | 0.00 | 0.00 | 0.00 | 41 | 1015.0 |
| 20260901191843 | 98 | 303 | 0.0 | 2.0 | 0.00 | 0.00 | 0.00 | 43 | 1015.1 |
| 20260901190818 | 96 | 303 | 1.0 | 3.0 | 0.00 | 0.00 | 0.00 | 45 | 1015.3 |
| 20260901185851 | 95 | 303 | 1.0 | 4.0 | 0.00 | 0.00 | 0.00 | 45 | 1015.5 |
| 20260901184823 | 95 | 303 | 2.0 | 5.0 | 0.00 | 0.00 | 0.00 | 44 | 1015.6 |
| 20260901183815 | 95 | 303 | 1.0 | 4.0 | 0.00 | 0.00 | 0.00 | 46 | 1015.7 |
| 20260901182847 | 95 | 303 | 2.0 | 4.0 | 0.00 | 0.00 | 0.00 | 46 | 1015.9 |
| 20260901181819 | 95 | 303 | 1.0 | 5.0 | 0.00 | 0.00 | 0.00 | 45 | 1016.0 |
| 20260901180837 | 95 | 303 | 1.0 | 3.0 | 0.00 | 0.00 | 0.00 | 47 | 1016.0 |
| 20260901175829 | 95 | 303 | 1.0 | 3.0 | 0.00 | 0.00 | 0.00 | 46 | 1016.1 |
| 20260901174821 | 94 | 303 | 3.0 | 5.0 | 0.00 | 0.00 | 0.00 | 47 | 1016.2 |
| 20260901173833 | 93 | 303 | 0.0 | 3.0 | 0.00 | 0.00 | 0.00 | 50 | 1016.3 |
| 20260901172826 | 93 | 303 | 1.0 | 5.0 | 0.00 | 0.00 | 0.00 | 49 | 1016.3 |
| 20260901171840 | 93 | 303 | 1.0 | 3.0 | 0.00 | 0.00 | 0.00 | 47 | 1016.3 |
| 20260901170836 | 91 | 303 | 0.0 | 3.0 | 0.00 | 0.00 | 0.00 | 49 | 1016.3 |
| 20260901165849 | 91 | 303 | 2.0 | 3.0 | 0.00 | 0.00 | 0.00 | 51 | 1016.2 |
| 20260901164821 | 90 | 303 | 1.0 | 3.0 | 0.00 | 0.00 | 0.00 | 52 | 1016.1 |
| 20260901163834 | 90 | 303 | 1.0 | 3.0 | 0.00 | 0.00 | 0.00 | 53 | 1016.1 |
| 20260901162827 | 89 | 303 | 0.0 | 4.0 | 0.00 | 0.00 | 0.00 | 55 | 1016.1 |
| 20260901161818 | 88 | 303 | 1.0 | 4.0 | 0.00 | 0.00 | 0.00 | 54 | 1016.0 |
| 20260901160816 | 89 | 303 | 1.0 | 4.0 | 0.00 | 0.00 | 0.00 | 52 | 1016.0 |
| 20260901155849 | 89 | 303 | 1.0 | 3.0 | 0.00 | 0.01 | 0.00 | 53 | 1015.9 |
| 20260901154820 | 88 | 303 | 1.0 | 4.0 | 0.00 | 0.01 | 0.00 | 54 | 1015.8 |
| 20260901153833 | 87 | 303 | 2.0 | 6.0 | 0.00 | 0.01 | 0.00 | 55 | 1015.8 |
| 20260901152823 | 87 | 303 | 2.0 | 6.0 | 0.00 | 0.01 | 0.00 | 54 | 1015.7 |
| 20260901151820 | 87 | 303 | 1.0 | 3.0 | 0.00 | 0.01 | 0.00 | 56 | 1015.7 |
| 20260901150832 | 86 | 303 | 0.0 | 2.0 | 0.00 | 0.01 | 0.00 | 58 | 1015.7 |
| 20260901145822 | 85 | 303 | 0.0 | 4.0 | 0.00 | 0.05 | 0.00 | 60 | 1015.8 |
| 20260901144816 | 84 | 303 | 2.0 | 3.0 | 0.00 | 0.05 | 0.00 | 61 | 1015.7 |
| 20260901143829 | 83 | 303 | 0.0 | 2.0 | 0.00 | 0.05 | 0.00 | 63 | 1015.5 |
| 20260901142855 | 82 | 303 | 0.0 | 3.0 | 0.00 | 0.05 | 0.00 | 66 | 1015.5 |